Time,TemperatureF,DewpointF,PressureIn,WindDirection,WindDirectionDegrees,WindSpeedMPH,WindSpeedGustMPH,Humidity,HourlyPrecipIn,Conditions,Clouds,dailyrainin,SoftwareType,DateUTC
2013-03-17 00:04:00,34.5,25.0,29.84,West,264,0.0,2.0,69,0.00,,,0.00,weatherlink.com 1.10,2013-03-17 04:04:00,
2013-03-17 00:19:00,34.5,25.0,29.84,West,273,0.0,3.0,69,0.00,,,0.00,weatherlink.com 1.10,2013-03-17 04:19:00,
2013-03-17 00:34:00,34.4,25.0,29.84,West,273,0.0,2.0,69,0.00,,,0.00,weatherlink.com 1.10,2013-03-17 04:34:00,
2013-03-17 00:49:00,34.3,25.0,29.84,West,271,0.0,3.0,68,0.00,,,0.00,weatherlink.com 1.10,2013-03-17 04:49:00,
2013-03-17 01:04:00,34.2,25.0,29.84,West,271,0.0,3.0,69,0.00,,,0.00,weatherlink.com 1.10,2013-03-17 05:04:00,
2013-03-17 01:19:00,34.2,25.0,29.85,West,267,0.0,2.0,69,0.00,,,0.00,weatherlink.com 1.10,2013-03-17 05:19:00,
2013-03-17 01:49:00,33.6,24.0,29.86,West,267,0.0,2.0,69,0.00,,,0.00,weatherlink.com 1.10,2013-03-17 05:49:00,
2013-03-17 02:04:00,33.1,25.0,29.86,West,267,0.0,1.0,71,0.00,,,0.00,weatherlink.com 1.10,2013-03-17 06:04:00,
2013-03-17 02:19:00,32.4,24.0,29.86,West,267,0.0,0.0,72,0.00,,,0.00,weatherlink.com 1.10,2013-03-17 06:19:00,
2013-03-17 02:34:00,31.7,24.0,29.85,West,267,0.0,1.0,73,0.00,,,0.00,weatherlink.com 1.10,2013-03-17 06:34:00,
2013-03-17 02:49:00,30.9,24.0,29.86,West,267,0.0,1.0,75,0.00,,,0.00,weatherlink.com 1.10,2013-03-17 06:49:00,
2013-03-17 03:04:00,30.6,24.0,29.85,West,267,0.0,1.0,76,0.00,,,0.00,weatherlink.com 1.10,2013-03-17 07:04:00,
2013-03-17 03:19:00,30.0,24.0,29.85,West,267,0.0,1.0,78,0.00,,,0.00,weatherlink.com 1.10,2013-03-17 07:19:00,
2013-03-17 03:34:00,29.9,24.0,29.85,West,267,0.0,0.0,78,0.00,,,0.00,weatherlink.com 1.10,2013-03-17 07:34:00,
2013-03-17 03:49:00,29.6,24.0,29.86,West,267,0.0,1.0,78,0.00,,,0.00,weatherlink.com 1.10,2013-03-17 07:49:00,
2013-03-17 04:04:00,29.6,23.0,29.86,West,267,0.0,1.0,75,0.00,,,0.00,weatherlink.com 1.10,2013-03-17 08:04:00,
2013-03-17 04:19:00,29.7,22.0,29.86,West,267,0.0,0.0,73,0.00,,,0.00,weatherlink.com 1.10,2013-03-17 08:19:00,
2013-03-17 04:34:00,29.4,21.0,29.87,WNW,284,0.0,3.0,72,0.00,,,0.00,weatherlink.com 1.10,2013-03-17 08:34:00,
2013-03-17 04:49:00,29.1,21.0,29.88,WNW,290,0.0,4.0,73,0.00,,,0.00,weatherlink.com 1.10,2013-03-17 08:49:00,
2013-03-17 05:04:00,28.8,21.0,29.89,NNW,335,0.0,4.0,73,0.00,,,0.00,weatherlink.com 1.10,2013-03-17 09:04:00,
2013-03-17 05:19:00,28.6,21.0,29.90,NNW,335,0.0,2.0,73,0.00,,,0.00,weatherlink.com 1.10,2013-03-17 09:19:00,
2013-03-17 05:35:00,28.3,21.0,29.89,NNW,335,0.0,0.0,73,0.00,,,0.00,weatherlink.com 1.10,2013-03-17 09:35:00,
2013-03-17 05:50:00,28.0,20.0,29.90,NNW,335,0.0,0.0,73,0.00,,,0.00,weatherlink.com 1.10,2013-03-17 09:50:00,
2013-03-17 06:05:00,28.1,20.0,29.91,NNW,335,0.0,1.0,72,0.00,,,0.00,weatherlink.com 1.10,2013-03-17 10:05:00,
2013-03-17 06:20:00,28.1,20.0,29.92,NNW,334,0.0,2.0,72,0.00,,,0.00,weatherlink.com 1.10,2013-03-17 10:20:00,
2013-03-17 06:35:00,27.9,20.0,29.92,NNW,334,0.0,1.0,72,0.00,,,0.00,weatherlink.com 1.10,2013-03-17 10:35:00,
2013-03-17 06:50:00,27.6,19.0,29.93,NNW,334,0.0,0.0,71,0.00,,,0.00,weatherlink.com 1.10,2013-03-17 10:50:00,
2013-03-17 07:05:00,27.3,19.0,29.93,NNW,334,0.0,2.0,72,0.00,,,0.00,weatherlink.com 1.10,2013-03-17 11:05:00,
2013-03-17 07:20:00,27.5,19.0,29.94,NNW,334,0.0,0.0,70,0.00,,,0.00,weatherlink.com 1.10,2013-03-17 11:20:00,
2013-03-17 07:35:00,28.0,18.0,29.95,NW,326,0.0,1.0,67,0.00,,,0.00,weatherlink.com 1.10,2013-03-17 11:35:00,
2013-03-17 07:50:00,29.0,18.0,29.95,West,262,1.0,2.0,64,0.00,,,0.00,weatherlink.com 1.10,2013-03-17 11:50:00,
2013-03-17 08:05:00,30.0,18.0,29.96,NW,324,1.0,5.0,62,0.00,,,0.00,weatherlink.com 1.10,2013-03-17 12:05:00,
2013-03-17 08:20:00,31.1,19.0,29.97,NNW,345,0.0,3.0,61,0.00,,,0.00,weatherlink.com 1.10,2013-03-17 12:20:00,
2013-03-17 08:35:00,32.3,20.0,29.97,NW,316,0.0,4.0,60,0.00,,,0.00,weatherlink.com 1.10,2013-03-17 12:35:00,
2013-03-17 08:50:00,32.6,20.0,29.98,NNW,331,1.0,9.0,59,0.00,,,0.00,weatherlink.com 1.10,2013-03-17 12:50:00,
2013-03-17 09:05:00,33.5,20.0,29.98,NW,321,4.0,4.0,57,0.00,,,0.00,weatherlink.com 1.10,2013-03-17 13:05:00,
2013-03-17 09:20:00,33.7,20.0,29.99,WNW,302,3.0,9.0,58,0.00,,,0.00,weatherlink.com 1.10,2013-03-17 13:20:00,
2013-03-17 09:35:00,35.0,20.0,29.99,NW,316,0.0,6.0,55,0.00,,,0.00,weatherlink.com 1.10,2013-03-17 13:35:00,
2013-03-17 09:50:00,35.9,21.0,30.00,NNW,335,1.0,9.0,55,0.00,,,0.00,weatherlink.com 1.10,2013-03-17 13:50:00,
2013-03-17 10:05:00,36.4,21.0,29.99,NNW,331,0.0,9.0,54,0.00,,,0.00,weatherlink.com 1.10,2013-03-17 14:05:00,
2013-03-17 10:20:00,37.0,20.0,29.99,North,357,1.0,8.0,51,0.00,,,0.00,weatherlink.com 1.10,2013-03-17 14:20:00,
2013-03-17 10:35:00,37.4,21.0,30.00,West,276,2.0,10.0,51,0.00,,,0.00,weatherlink.com 1.10,2013-03-17 14:35:00,
2013-03-17 10:50:00,37.8,21.0,30.01,NNW,334,2.0,8.0,50,0.00,,,0.00,weatherlink.com 1.10,2013-03-17 14:50:00,
2013-03-17 11:05:00,37.7,20.0,30.01,NW,319,1.0,11.0,49,0.00,,,0.00,weatherlink.com 1.10,2013-03-17 15:05:00,
2013-03-17 11:20:00,38.3,20.0,30.02,NNW,336,0.0,7.0,48,0.00,,,0.00,weatherlink.com 1.10,2013-03-17 15:20:00,
2013-03-17 11:35:00,38.6,20.0,30.01,NNW,340,1.0,4.0,48,0.00,,,0.00,weatherlink.com 1.10,2013-03-17 15:35:00,
2013-03-17 11:50:00,38.6,18.0,30.01,West,278,4.0,7.0,43,0.00,,,0.00,weatherlink.com 1.10,2013-03-17 15:50:00,
2013-03-17 12:05:00,38.0,18.0,30.00,WSW,246,0.0,9.0,44,0.00,,,0.00,weatherlink.com 1.10,2013-03-17 16:05:00,
2013-03-17 12:20:00,39.5,17.0,30.00,NW,305,3.0,8.0,41,0.00,,,0.00,weatherlink.com 1.10,2013-03-17 16:20:00,
2013-03-17 12:35:00,40.2,17.0,30.00,West,279,3.0,8.0,39,0.00,,,0.00,weatherlink.com 1.10,2013-03-17 16:35:00,
2013-03-17 12:50:00,39.2,17.0,29.99,NW,314,1.0,10.0,40,0.00,,,0.00,weatherlink.com 1.10,2013-03-17 16:50:00,
2013-03-17 13:05:00,40.5,17.0,29.99,West,269,0.0,8.0,39,0.00,,,0.00,weatherlink.com 1.10,2013-03-17 17:05:00,
2013-03-17 13:20:00,40.2,18.0,29.98,NW,321,0.0,10.0,41,0.00,,,0.00,weatherlink.com 1.10,2013-03-17 17:20:00,
2013-03-17 13:36:00,42.5,18.0,29.98,NW,309,5.0,11.0,38,0.00,,,0.00,weatherlink.com 1.10,2013-03-17 17:36:00,
2013-03-17 13:51:00,42.7,17.0,29.98,WNW,283,0.0,7.0,36,0.00,,,0.00,weatherlink.com 1.10,2013-03-17 17:51:00,
2013-03-17 14:06:00,42.7,17.0,29.98,North,351,2.0,8.0,35,0.00,,,0.00,weatherlink.com 1.10,2013-03-17 18:06:00,
2013-03-17 14:21:00,41.6,14.0,29.99,NW,321,0.0,9.0,33,0.00,,,0.00,weatherlink.com 1.10,2013-03-17 18:21:00,
2013-03-17 14:36:00,40.9,14.0,29.99,South,184,2.0,11.0,34,0.00,,,0.00,weatherlink.com 1.10,2013-03-17 18:36:00,
2013-03-17 14:51:00,40.8,15.0,30.01,WNW,293,3.0,7.0,35,0.00,,,0.00,weatherlink.com 1.10,2013-03-17 18:51:00,
2013-03-17 15:06:00,40.2,14.0,30.01,NNW,346,0.0,8.0,35,0.00,,,0.00,weatherlink.com 1.10,2013-03-17 19:06:00,
2013-03-17 15:21:00,40.1,14.0,30.02,WNW,299,0.0,9.0,35,0.00,,,0.00,weatherlink.com 1.10,2013-03-17 19:21:00,
2013-03-17 16:21:00,40.4,13.0,30.03,NNW,348,0.0,10.0,33,0.00,,,0.00,weatherlink.com 1.10,2013-03-17 20:21:00,
2013-03-17 16:51:00,40.0,9.0,30.05,NW,314,0.0,6.0,28,0.00,,,0.00,weatherlink.com 1.10,2013-03-17 20:51:00,
2013-03-17 17:36:00,39.3,9.0,30.07,North,352,3.0,6.0,29,0.00,,,0.00,weatherlink.com 1.10,2013-03-17 21:36:00,
2013-03-17 18:06:00,38.4,10.0,30.08,NW,315,0.0,3.0,31,0.00,,,0.00,weatherlink.com 1.10,2013-03-17 22:06:00,
2013-03-17 18:21:00,37.6,9.0,30.09,NNW,343,0.0,6.0,30,0.00,,,0.00,weatherlink.com 1.10,2013-03-17 22:21:00,
2013-03-17 18:36:00,36.9,9.0,30.10,NNW,334,1.0,3.0,32,0.00,,,0.00,weatherlink.com 1.10,2013-03-17 22:36:00,
2013-03-17 18:51:00,36.1,9.0,30.11,NNW,343,1.0,3.0,32,0.00,,,0.00,weatherlink.com 1.10,2013-03-17 22:51:00,
2013-03-17 19:06:00,35.5,7.0,30.13,NW,309,0.0,4.0,31,0.00,,,0.00,weatherlink.com 1.10,2013-03-17 23:06:00,
2013-03-17 19:21:00,34.8,8.0,30.14,NNW,342,0.0,2.0,33,0.00,,,0.00,weatherlink.com 1.10,2013-03-17 23:21:00,
2013-03-17 19:36:00,34.1,7.0,30.15,NNW,347,0.0,3.0,32,0.00,,,0.00,weatherlink.com 1.10,2013-03-17 23:36:00,
2013-03-17 19:51:00,33.7,7.0,30.16,NNW,345,0.0,1.0,33,0.00,,,0.00,weatherlink.com 1.10,2013-03-17 23:51:00,
2013-03-17 20:06:00,33.0,8.0,30.17,NNW,345,0.0,1.0,35,0.00,,,0.00,weatherlink.com 1.10,2013-03-18 00:06:00,
2013-03-17 20:21:00,32.4,9.0,30.17,NNW,345,0.0,0.0,38,0.00,,,0.00,weatherlink.com 1.10,2013-03-18 00:21:00,
2013-03-17 20:36:00,31.8,9.0,30.18,NNW,345,0.0,0.0,39,0.00,,,0.00,weatherlink.com 1.10,2013-03-18 00:36:00,
2013-03-17 20:51:00,31.1,10.0,30.19,NNW,345,0.0,0.0,41,0.00,,,0.00,weatherlink.com 1.10,2013-03-18 00:51:00,
2013-03-17 21:06:00,30.6,10.0,30.19,NNW,345,0.0,0.0,42,0.00,,,0.00,weatherlink.com 1.10,2013-03-18 01:06:00,
2013-03-17 21:22:00,29.9,10.0,30.20,NNW,345,0.0,0.0,43,0.00,,,0.00,weatherlink.com 1.10,2013-03-18 01:22:00,
2013-03-17 21:36:00,29.8,11.0,30.21,NNW,345,0.0,0.0,45,0.00,,,0.00,weatherlink.com 1.10,2013-03-18 01:36:00,
2013-03-17 21:52:00,29.3,12.0,30.22,NNW,345,0.0,0.0,48,0.00,,,0.00,weatherlink.com 1.10,2013-03-18 01:52:00,
2013-03-17 22:07:00,29.0,11.0,30.23,NNW,345,0.0,1.0,47,0.00,,,0.00,weatherlink.com 1.10,2013-03-18 02:07:00,
2013-03-17 22:22:00,29.1,10.0,30.23,NNW,345,0.0,2.0,44,0.00,,,0.00,weatherlink.com 1.10,2013-03-18 02:22:00,
2013-03-17 22:37:00,29.2,9.0,30.25,NNW,345,0.0,1.0,42,0.00,,,0.00,weatherlink.com 1.10,2013-03-18 02:37:00,
2013-03-17 22:52:00,29.1,9.0,30.25,North,350,0.0,3.0,43,0.00,,,0.00,weatherlink.com 1.10,2013-03-18 02:52:00,
2013-03-17 23:07:00,28.8,9.0,30.25,North,350,0.0,1.0,44,0.00,,,0.00,weatherlink.com 1.10,2013-03-18 03:07:00,
2013-03-17 23:22:00,28.3,10.0,30.26,North,350,0.0,1.0,46,0.00,,,0.00,weatherlink.com 1.10,2013-03-18 03:22:00,
2013-03-17 23:37:00,28.0,10.0,30.27,NNW,347,0.0,3.0,48,0.00,,,0.00,weatherlink.com 1.10,2013-03-18 03:37:00,
2013-03-17 23:52:00,27.7,11.0,30.27,North,357,0.0,3.0,49,0.00,,,0.00,weatherlink.com 1.10,2013-03-18 03:52:00,